Location: Nantong Television Tower
(32.0188°N, 120.8512°E)
Time: 02:37:28
(UTC+08:00)

Vanguard 3 - Visible Passes

Search period start: 07 February 2016 00:00
Search period end: 17 February 2016 00:00
Orbit: 508 x 3268 km, 33.3° (Epoch: 06 February)

Date Brightness Start Highest point End Pass type
(mag) Time Alt. Az. Time Alt. Az. Time Alt. Az.
07 Feb 6.4 05:13:36 53° SW 05:14:08 59° SSW 05:18:32 10° ESE visible
08 Feb 9.3 04:04:34 14° E 04:04:34 14° E 04:05:10 10° E visible
08 Feb 7.9 06:09:22 10° W 06:12:39 27° SSW 06:16:51 10° SE visible
08 Feb 10.6 20:07:34 10° SSE 20:09:25 11° SSE 20:09:25 11° SSE visible
09 Feb 6.8 05:00:10 44° S 05:00:10 44° S 05:03:47 10° SE visible
09 Feb 10.5 21:01:13 10° SSW 21:05:06 17° S 21:05:06 17° S visible
10 Feb 8.2 05:55:48 11° WSW 05:58:17 19° SSW 06:01:27 10° SSE visible
10 Feb 10.3 19:48:04 10° S 19:55:48 16° SSE 19:56:10 16° SSE visible
10 Feb 10.7 21:59:08 10° SW 22:00:49 14° SW 22:00:49 14° SW visible
11 Feb 7.8 04:46:48 26° SSE 04:46:48 26° SSE 04:49:02 10° SE visible
11 Feb 10.1 20:44:12 10° SSW 20:51:55 26° S 20:51:55 26° S visible
12 Feb 8.4 05:42:28 11° SW 05:43:51 13° SSW 05:45:43 10° S visible
12 Feb 10.1 19:30:07 10° SSW 19:40:57 22° SSE 19:43:03 21° SE visible
12 Feb 10.4 21:42:51 10° SW 21:47:42 23° SW 21:47:42 23° SW visible
13 Feb 8.7 04:33:32 14° SSE 04:33:32 14° SSE 04:34:16 10° SSE visible
13 Feb 10.5 18:17:59 10° S 18:25:50 15° SSE 18:32:22 10° ESE visible
13 Feb 9.7 20:27:22 10° SW 20:38:49 36° S 20:38:49 36° S visible
13 Feb 10.9 22:42:52 10° WSW 22:43:29 12° WSW 22:43:29 12° WSW visible
14 Feb 9.9 19:12:40 10° SSW 19:25:56 29° SSE 19:29:58 24° ESE visible
14 Feb 9.9 21:26:37 10° SW 21:34:38 34° SW 21:34:38 34° SW visible
15 Feb 10.5 17:59:26 10° S 18:10:43 20° SE 18:19:38 10° ESE visible
15 Feb 9.3 20:10:41 10° SW 20:25:47 46° SSE 20:25:47 46° SSE visible
15 Feb 10.6 22:27:03 10° WSW 22:30:25 19° WSW 22:30:25 19° WSW visible
16 Feb 9.8 18:55:32 10° SSW 19:10:47 35° SSE 19:16:55 24° ESE visible
16 Feb 9.5 21:10:24 10° WSW 21:21:34 48° SW 21:21:34 48° SW visible
